EW1669 Weather Reports


time (UTC)temp
C
wind
direction
speed
KPH
gust
KPH
rain 1hr
cm
rain 24hr
cm
rain mn
cm
humidity
%
barometer
mb
20260506004851 23 269 0.0 0.0 0.00 0.00 0.00 22 1009.2
20260506004258 23 184 0.0 9.7 0.00 0.00 0.00 24 1009.2
20260506003710 23 220 4.8 16.1 0.00 0.00 0.00 25 1009.2
20260506003050 23 224 6.4 16.1 0.00 0.00 0.00 26 1008.9
20260506002451 23 229 11.3 22.5 0.00 0.00 0.00 26 1008.9
20260506001852 23 242 6.4 24.1 0.00 0.00 0.00 26 1008.9
20260506001250 23 170 6.4 14.5 0.00 0.00 0.00 25 1008.9
20260506000641 23 210 3.2 16.1 0.00 0.00 0.00 25 1008.9
20260506000100 23 203 1.6 17.7 0.00 0.00 0.00 26 1008.9
20260505235504 24 213 14.5 17.7 0.00 0.00 0.00 25 1009.2
20260505235210 24 251 6.4 14.5 0.00 0.00 0.00 26 1008.9
20260505234827 24 198 3.2 12.9 0.00 0.00 0.00 26 1008.9
20260505233752 24 208 0.0 12.9 0.00 0.00 0.00 26 1008.9
20260505233149 23 206 3.2 12.9 0.00 0.00 0.00 26 1008.9
20260505232551 23 206 8.0 16.1 0.00 0.00 0.00 27 1009.2
20260505231946 23 202 6.4 16.1 0.00 0.00 0.00 26 1008.9
20260505231358 24 203 1.6 3.2 0.00 0.00 0.00 26 1008.9
20260505230756 24 220 1.6 11.3 0.00 0.00 0.00 26 1008.9
20260505230417 24 213 0.0 11.3 0.00 0.00 0.00 26 1008.9
20260505225815 24 204 0.0 0.0 0.00 0.00 0.00 27 1009.2
20260505225221 23 193 0.0 0.0 0.00 0.00 0.00 28 1009.2
20260505224346 24 199 0.0 1.6 0.00 0.00 0.00 27 1009.2
20260505223750 23 206 0.0 0.0 0.00 0.00 0.00 28 1009.5
20260505223147 23 186 0.0 1.6 0.00 0.00 0.00 29 1009.5
20260505222549 23 187 0.0 1.6 0.00 0.00 0.00 30 1009.5
20260505221954 23 209 0.0 0.0 0.00 0.00 0.00 30 1009.5
20260505221834 24 168 0.0 0.0 0.00 0.00 0.00 29 1009.9
20260505220753 23 194 0.0 4.8 0.00 0.00 0.00 29 1009.9
20260505220146 23 200 0.0 0.0 0.00 0.00 0.00 30 1010.2
20260505215547 23 198 0.0 0.0 0.00 0.00 0.00 30 1010.2
20260505214942 23 189 0.0 0.0 0.00 0.00 0.00 30 1010.2
20260505214608 23 144 0.0 1.6 0.00 0.00 0.00 31 1010.2
20260505213753 23 203 0.0 0.0 0.00 0.00 0.00 30 1010.6
20260505213146 23 195 0.0 1.6 0.00 0.00 0.00 29 1010.6
20260505212543 24 189 0.0 1.6 0.00 0.00 0.00 29 1010.6
20260505211947 23 216 0.0 1.6 0.00 0.00 0.00 30 1010.6
20260505211352 23 190 0.0 1.6 0.00 0.00 0.00 30 1010.6
20260505210751 23 272 0.0 1.6 0.00 0.00 0.00 30 1010.6
20260505210152 22 226 0.0 1.6 0.00 0.00 0.00 31 1010.9
20260505205550 22 219 0.0 0.0 0.00 0.00 0.00 30 1010.6
20260505204946 23 202 0.0 0.0 0.00 0.00 0.00 30 1011.2
20260505204321 23 238 0.0 0.0 0.00 0.00 0.00 31 1011.2
20260505203658 23 278 0.0 0.0 0.00 0.00 0.00 31 1011.6
20260505203323 23 258 0.0 0.0 0.00 0.00 0.00 31 1011.6
20260505202510 22 239 0.0 3.2 0.00 0.00 0.00 32 1011.9
20260505201851 22 298 0.0 6.4 0.00 0.00 0.00 33 1011.9
20260505201508 22 211 0.0 4.8 0.00 0.00 0.00 30 1012.3
20260505200659 22 214 1.6 4.8 0.00 0.00 0.00 29 1011.9
20260505200054 22 153 0.0 0.0 0.00 0.00 0.00 30 1012.3
20260505195510 22 197 0.0 0.0 0.00 0.00 0.00 28 1012.3
20260505194908 22 180 0.0 0.0 0.00 0.00 0.00 29 1011.6
20260505194241 22 212 0.0 0.0 0.00 0.00 0.00 29 1011.9
20260505193701 22 162 0.0 0.0 0.00 0.00 0.00 29 1012.3
20260505193110 22 140 0.0 1.6 0.00 0.00 0.00 29 1011.9
20260505192446 22 207 0.0 0.0 0.00 0.00 0.00 29 1012.3
20260505191852 21 126 0.0 3.2 0.00 0.00 0.00 31 1012.3
20260505191303 21 156 1.6 3.2 0.00 0.00 0.00 29 1012.3
20260505190651 21 114 0.0 0.0 0.00 0.00 0.00 29 1012.3
20260505190051 21 117 0.0 0.0 0.00 0.00 0.00 30 1012.3
20260505185512 22 346 0.0 0.0 0.00 0.00 0.00 29 1012.3
20260505184850 22 85 0.0 0.0 0.00 0.00 0.00 29 1011.9
20260505184253 21 280 0.0 0.0 0.00 0.00 0.00 30 1012.3
20260505183642 21 357 0.0 0.0 0.00 0.00 0.00 30 1012.3
20260505183056 20 137 0.0 0.0 0.00 0.00 0.00 31 1012.6
20260505182448 20 117 0.0 0.0 0.00 0.00 0.00 30 1012.6
20260505181858 20 192 0.0 0.0 0.00 0.00 0.00 30 1012.9
20260505181252 20 347 0.0 0.0 0.00 0.00 0.00 31 1012.9
20260505180648 20 347 0.0 6.4 0.00 0.00 0.00 31 1012.6
20260505180057 19 25 0.0 11.3 0.00 0.00 0.00 34 1012.9
20260505175712 19 342 6.4 11.3 0.00 0.00 0.00 33 1012.9
20260505174907 20 297 0.0 1.6 0.00 0.00 0.00 33 1012.9
20260505174248 19 9 0.0 3.2 0.00 0.00 0.00 34 1012.9
20260505173646 19 119 0.0 1.6 0.00 0.00 0.00 34 1012.9
20260505173142 19 25 0.0 4.8 0.00 0.00 0.00 34 1013.3
20260505172551 18 358 1.6 4.8 0.00 0.00 0.00 35 1012.9
20260505172223 19 341 0.0 0.0 0.00 0.00 0.00 35 1012.9
20260505171353 18 81 0.0 4.8 0.00 0.00 0.00 35 1012.9
20260505170753 19 3 0.0 1.6 0.00 0.00 0.00 34 1012.9
20260505170146 19 37 0.0 0.0 0.00 0.00 0.00 34 1012.6
20260505165546 18 60 0.0 0.0 0.00 0.00 0.00 36 1012.6
20260505164938 18 16 0.0 0.0 0.00 0.00 0.00 36 1012.6
20260505164332 18 113 0.0 0.0 0.00 0.00 0.00 37 1012.9
20260505164018 18 57 0.0 0.0 0.00 0.00 0.00 38 1012.9
20260505163156 18 73 0.0 0.0 0.00 0.00 0.00 37 1012.9
20260505162546 17 83 0.0 11.3 0.00 0.00 0.00 39 1012.9
20260505161952 17 9 6.4 11.3 0.00 0.00 0.00 40 1013.3
20260505161340 16 344 0.0 3.2 0.00 0.00 0.00 40 1012.6
20260505160755 16 12 0.0 3.2 0.00 0.00 0.00 41 1013.3
20260505160147 16 13 0.0 14.5 0.00 0.00 0.00 41 1013.3
20260505153240 15 20 1.6 4.8 0.00 0.00 0.00 44 1012.9
20260505152904 16 352 1.6 1.6 0.00 0.00 0.00 44 1012.9
20260505152050 15 9 0.0 1.6 0.00 0.00 0.00 45 1013.3
20260505151711 15 36 0.0 6.4 0.00 0.00 0.00 45 1012.9
20260505150846 15 41 0.0 9.7 0.00 0.00 0.00 47 1013.3
20260505150248 14 345 0.0 3.2 0.00 0.00 0.00 47 1013.3
20260505140615 13 336 0.0 14.5 0.00 0.00 0.00 54 1011.9
20260505124910 13 345 0.0 4.8 0.00 0.00 0.00 52 1011.2
20260505124721 14 333 1.6 9.7 0.00 0.00 0.00 50 1011.2
20260505123658 14 347 1.6 4.8 0.00 0.00 0.00 49 1010.9
20260505123110 15 11 0.0 3.2 0.00 0.00 0.00 47 1011.2
20260505122453 15 2 0.0 16.1 0.00 0.00 0.00 45 1010.9
20260505121904 15 16 0.0 14.5 0.00 0.00 0.00 43 1010.9
20260505121256 16 8 3.2 4.8 0.00 0.00 0.00 40 1010.9
20260505120648 17 345 0.0 1.6 0.00 0.00 0.00 31 1010.6
20260505120109 17 269 0.0 0.0 0.00 0.00 0.00 31 1010.6
20260505115449 17 287 0.0 3.2 0.00 0.00 0.00 32 1010.2
20260505114848 17 335 0.0 0.0 0.00 0.00 0.00 31 1010.6
20260505114256 17 253 0.0 1.6 0.00 0.00 0.00 32 1009.5
20260505113650 17 344 0.0 1.6 0.00 0.00 0.00 32 1010.6
20260505113100 17 242 0.0 0.0 0.00 0.00 0.00 31 1009.9
20260505112453 17 237 0.0 0.0 0.00 0.00 0.00 31 1009.5
20260505111853 17 260 0.0 0.0 0.00 0.00 0.00 31 1009.9
20260505111252 17 235 0.0 1.6 0.00 0.00 0.00 30 1009.5
20260505111120 17 218 0.0 0.0 0.00 0.00 0.00 30 1009.5
20260505110109 17 187 0.0 0.0 0.00 0.00 0.00 30 1009.9
20260505101939 17 224 0.0 0.0 0.00 0.00 0.00 30 1009.5
20260505101357 17 204 0.0 0.0 0.00 0.00 0.00 30 1009.9
20260505100751 17 232 0.0 0.0 0.00 0.00 0.00 30 1009.5
20260505100136 17 217 0.0 0.0 0.00 0.00 0.00 30 1010.2
20260505095516 17 214 0.0 3.2 0.00 0.00 0.00 30 1009.9
20260505094854 17 224 1.6 3.2 0.00 0.00 0.00 30 1009.9
20260505094305 17 218 0.0 0.0 0.00 0.00 0.00 29 1010.2
20260505093922 16 216 0.0 0.0 0.00 0.00 0.00 30 1009.9
20260505093538 17 206 0.0 0.0 0.00 0.00 0.00 30 1009.9
20260505092716 17 218 0.0 0.0 0.00 0.00 0.00 29 1009.9
20260505091902 17 218 0.0 0.0 0.00 0.00 0.00 29 1009.9
20260505091352 17 199 0.0 0.0 0.00 0.00 0.00 29 1009.9
20260505090751 17 215 0.0 0.0 0.00 0.00 0.00 29 1009.5
20260505090147 17 199 0.0 0.0 0.00 0.00 0.00 28 1009.5
20260505085550 17 238 0.0 0.0 0.00 0.00 0.00 28 1009.5
20260505084953 17 213 0.0 0.0 0.00 0.00 0.00 27 1009.5
20260505084349 18 209 0.0 0.0 0.00 0.00 0.00 27 1009.5
20260505083751 18 217 0.0 0.0 0.00 0.00 0.00 26 1009.5
20260505083229 18 207 0.0 0.0 0.00 0.00 0.00 26 1009.5
20260505082641 18 203 0.0 0.0 0.00 0.00 0.00 25 1009.5
20260505082054 18 212 0.0 0.0 0.00 0.00 0.00 25 1009.5
20260505081911 19 206 0.0 0.0 0.00 0.00 0.00 25 1009.5
20260505081108 19 229 0.0 0.0 0.00 0.00 0.00 25 1009.2
20260505080252 18 225 0.0 0.0 0.00 0.00 0.00 25 1009.5
20260505075654 18 260 0.0 0.0 0.00 0.00 0.00 25 1009.2
20260505075324 19 231 0.0 0.0 0.00 0.00 0.00 25 1009.2
20260505074511 19 225 0.0 0.0 0.00 0.00 0.00 25 1009.5
20260505074329 19 219 0.0 0.0 0.00 0.00 0.00 25 1009.5
20260505073248 19 229 0.0 0.0 0.00 0.00 0.00 25 1009.5
20260505072647 18 215 0.0 0.0 0.00 0.00 0.00 26 1009.5
20260505072052 18 208 0.0 0.0 0.00 0.00 0.00 27 1009.5
20260505071456 18 212 0.0 0.0 0.00 0.00 0.00 27 1009.5
20260505070843 18 204 0.0 1.6 0.00 0.00 0.00 27 1009.9
20260505070248 19 210 0.0 1.6 0.00 0.00 0.00 27 1009.5
20260505065651 19 202 0.0 1.6 0.00 0.00 0.00 26 1009.5
20260505065048 19 201 0.0 3.2 0.00 0.00 0.00 26 1009.5
20260505064716 20 215 0.0 6.4 0.00 0.00 0.00 25 1009.5
20260505063850 20 220 0.0 6.4 0.00 0.00 0.00 25 1009.5
20260505063251 20 210 0.0 1.6 0.00 0.00 0.00 24 1009.5
20260505062917 20 205 0.0 9.7 0.00 0.00 0.00 24 1009.5
20260505062042 20 185 0.0 6.4 0.00 0.00 0.00 25 1009.5
20260505061454 20 211 0.0 0.0 0.00 0.00 0.00 26 1009.5
20260505060852 20 209 0.0 0.0 0.00 0.00 0.00 25 1009.5
20260505060310 20 202 0.0 0.0 0.00 0.00 0.00 25 1009.9
20260505055736 20 203 0.0 0.0 0.00 0.00 0.00 25 1009.5
20260505055416 20 199 0.0 0.0 0.00 0.00 0.00 25 1009.9
20260505054553 20 203 0.0 1.6 0.00 0.00 0.00 25 1009.5
20260505053959 20 215 0.0 1.6 0.00 0.00 0.00 24 1009.5
20260505053406 20 220 0.0 4.8 0.00 0.00 0.00 24 1009.5
20260505052740 20 226 0.0 1.6 0.00 0.00 0.00 24 1009.9
20260505052414 20 220 0.0 4.8 0.00 0.00 0.00 23 1009.5
20260505051605 20 199 0.0 4.8 0.00 0.00 0.00 24 1009.9
20260505050951 21 190 0.0 4.8 0.00 0.00 0.00 23 1009.9
20260505050409 21 210 0.0 4.8 0.00 0.00 0.00 23 1009.5
20260505040953 21 205 0.0 11.3 0.00 0.00 0.00 22 1010.2
20260505040400 22 212 3.2 11.3 0.00 0.00 0.00 22 1009.9
20260505035750 21 215 0.0 3.2 0.00 0.00 0.00 22 1009.9
20260505035406 21 204 0.0 3.2 0.00 0.00 0.00 22 1009.9
20260505034559 22 210 0.0 1.6 0.00 0.00 0.00 21 1009.5
20260505033952 21 214 0.0 1.6 0.00 0.00 0.00 21 1009.9
20260505033353 22 183 0.0 3.2 0.00 0.00 0.00 21 1009.9
20260505032849 22 192 0.0 9.7 0.00 0.00 0.00 21 1009.9
20260505032240 22 217 3.2 11.3 0.00 0.00 0.00 21 1009.5
20260505031906 22 231 1.6 11.3 0.00 0.00 0.00 21 1009.5
20260505031047 22 214 0.0 12.9 0.00 0.00 0.00 21 1009.5
20260505030454 22 235 1.6 4.8 0.00 0.00 0.00 21 1009.5
20260505025840 21 182 0.0 14.5 0.00 0.00 0.00 22 1009.5
20260505025750 21 207 6.4 14.5 0.00 0.00 0.00 22 1009.5
20260505024745 21 215 1.6 11.3 0.00 0.00 0.00 22 1009.5
20260505024234 21 211 0.0 3.2 0.00 0.00 0.00 23 1009.5
20260505024207 21 217 0.0 6.4 0.00 0.00 0.00 23 1009.5
20260505023207 21 198 0.0 6.4 0.00 0.00 0.00 23 1009.5
20260505022653 22 209 0.0 4.8 0.00 0.00 0.00 23 1009.5
20260505022140 22 197 0.0 4.8 0.00 0.00 0.00 23 1009.2
20260505021628 22 210 0.0 3.2 0.00 0.00 0.00 23 1009.2
20260505021109 22 193 0.0 3.2 0.00 0.00 0.00 23 1009.2
20260505021050 22 220 1.6 4.8 0.00 0.00 0.00 22 1009.2
20260505020049 22 187 0.0 6.4 0.00 0.00 0.00 22 1008.9
20260505015537 22 210 0.0 6.4 0.00 0.00 0.00 22 1008.9
20260505015024 23 230 1.6 4.8 0.00 0.00 0.00 22 1008.9
20260505014510 23 209 1.6 6.4 0.00 0.00 0.00 22 1008.9
20260505014010 23 222 0.0 16.1 0.00 0.00 0.00 22 1008.9
20260505013508 23 204 0.0 16.1 0.00 0.00 0.00 21 1008.9
20260505013007 23 210 0.0 9.7 0.00 0.00 0.00 21 1009.2
20260505012453 23 212 0.0 4.8 0.00 0.00 0.00 21 1009.2
20260505011940 23 194 0.0 4.8 0.00 0.00 0.00 21 1009.5
20260505011437 23 217 0.0 11.3 0.00 0.00 0.00 20 1008.9
20260505010930 24 224 3.2 14.5 0.00 0.00 0.00 20 1009.2
20260505010640 24 227 4.8 14.5 0.00 0.00 0.00 20 1008.9
20260505005904 24 209 1.6 27.4 0.00 0.00 0.00 20 1009.2
20260505005350 24 173 14.5 27.4 0.00 0.00 0.00 20 1009.2